Location: Biltmore Gardens
(41.6070°N, 83.4666°W)
Time: 14:23:38
(UTC+00:00)

deb Kosmos-1763 - Pass Details

Date: 14 July 2020
Orbit: 464 x 480 km, 74.0° (Epoch: 05 August)

Event Time Altitude Azimuth Distance (km) Brightness Sun altitude
Exits shadow 08:05:42 55° 206° (SSW) 567 4.0 -18.4°
Maximum altitude 08:06:25 86° 287° (WNW) 473 3.9 -18.3°
Drops below altitude 10° 08:10:01 10° 19° (NNE) 1,632 7.9 -17.9°
Sets 08:12:09 0° 20° (NNE) 2,516 9.1 -17.6°
